• In Deutschland
  • Länderverzeichnis
  • Für 7 Tage
  • Wassertemperatur
  • Satellitenkarten
  • Wetterkarte
  • Widgets
  • user-avatar
    Anmelden

    Stündliche Wetter Ushuaia

    Heute, 24 November, Freitag

    Zeit Temperatur Niederschläge Wind Luftdruck Luftfeuchtigkeit
    00:00 +1°C° 0 mm 8 m/S 723 mmHg 76%
    01:00 +1°C° 0 mm 8 m/S 723 mmHg 76%
    02:00 +1°C° 0 mm 8 m/S 723 mmHg 75%
    03:00 +1°C° 0 mm 8 m/S 722 mmHg 75%
    04:00 +2°C° 0 mm 7 m/S 722 mmHg 74%
    05:00 +2°C° 0 mm 8 m/S 722 mmHg 70%
    06:00 +3°C° 0 mm 9 m/S 722 mmHg 65%
    07:00 +5°C° 0 mm 9 m/S 721 mmHg 60%
    08:00 +5°C° 0,1 mm 9 m/S 721 mmHg 59%
    09:00 +6°C° 0,1 mm 9 m/S 720 mmHg 58%
    10:00 +7°C° 0,1 mm 9 m/S 720 mmHg 56%
    11:00 +7°C° 0,4 mm 8 m/S 720 mmHg 60%
    12:00 +7°C° 0,4 mm 8 m/S 719 mmHg 64%
    13:00 +8°C° 0,4 mm 7 m/S 719 mmHg 68%
    14:00 +6°C° 0,8 mm 7 m/S 719 mmHg 71%
    15:00 +5°C° 0,8 mm 6 m/S 719 mmHg 75%
    16:00 +5°C° 0,8 mm 6 m/S 719 mmHg 78%
    17:00 +5°C° 0,4 mm 5 m/S 719 mmHg 81%
    18:00 +5°C° 0,4 mm 4 m/S 719 mmHg 83%
    19:00 +4°C° 0,4 mm 4 m/S 719 mmHg 85%
    20:00 +3°C° 0,1 mm 3 m/S 719 mmHg 87%
    21:00 +3°C° 0,1 mm 3 m/S 719 mmHg 89%
    22:00 +3°C° 0,1 mm 2 m/S 719 mmHg 91%
    23:00 +4°C° 0,4 mm 2 m/S 719 mmHg 92%

    Morgen, 25 November, Samstag

    Zeit Temperatur Niederschläge Wind Luftdruck Luftfeuchtigkeit
    00:00 +4°C° 0,4 mm 2 m/S 719 mmHg 92%
    01:00 +4°C° 0,4 mm 2 m/S 719 mmHg 93%
    02:00 +4°C° 0,7 mm 2 m/S 719 mmHg 92%
    03:00 +3°C° 0,7 mm 3 m/S 719 mmHg 92%
    04:00 +4°C° 0,7 mm 3 m/S 719 mmHg 92%
    05:00 +4°C° 0,5 mm 4 m/S 719 mmHg 87%
    06:00 +5°C° 0,5 mm 5 m/S 719 mmHg 82%
    07:00 +6°C° 0,5 mm 5 m/S 719 mmHg 78%
    08:00 +7°C° 0,2 mm 6 m/S 719 mmHg 73%
    09:00 +8°C° 0,2 mm 6 m/S 719 mmHg 68%
    10:00 +9°C° 0,2 mm 6 m/S 719 mmHg 64%
    11:00 +9°C° 0,2 mm 7 m/S 718 mmHg 64%
    12:00 +10°C° 0,2 mm 7 m/S 717 mmHg 64%
    13:00 +10°C° 0,2 mm 7 m/S 716 mmHg 64%
    14:00 +10°C° 0,3 mm 7 m/S 716 mmHg 68%
    15:00 +9°C° 0,3 mm 7 m/S 715 mmHg 72%
    16:00 +9°C° 0,3 mm 7 m/S 714 mmHg 76%
    17:00 +8°C° 0,2 mm 7 m/S 713 mmHg 77%
    18:00 +6°C° 0,2 mm 7 m/S 713 mmHg 78%
    19:00 +6°C° 0,2 mm 7 m/S 712 mmHg 80%
    20:00 +5°C° 0,1 mm 6 m/S 712 mmHg 81%
    21:00 +5°C° 0,1 mm 6 m/S 711 mmHg 83%
    22:00 +6°C° 0,1 mm 5 m/S 710 mmHg 85%
    23:00 +5°C° 0,3 mm 5 m/S 710 mmHg 87%

    übermorgen, 26 November, Sonntag

    Zeit Temperatur Niederschläge Wind Luftdruck Luftfeuchtigkeit
    00:00 +5°C° 0,3 mm 5 m/S 709 mmHg 88%
    01:00 +5°C° 0,3 mm 5 m/S 708 mmHg 89%
    02:00 +3°C° 1 mm 5 m/S 709 mmHg 89%
    03:00 +3°C° 1 mm 6 m/S 710 mmHg 89%
    04:00 +2°C° 1 mm 7 m/S 711 mmHg 90%
    05:00 0°C° 0,8 mm 8 m/S 714 mmHg 87%
    06:00 0°C° 0,8 mm 8 m/S 717 mmHg 85%
    07:00 -1°C° 0,8 mm 9 m/S 720 mmHg 82%
    08:00 -2°C° 0,2 mm 10 m/S 722 mmHg 74%
    09:00 -1°C° 0,2 mm 11 m/S 724 mmHg 66%
    10:00 -1°C° 0,2 mm 11 m/S 726 mmHg 57%
    11:00 -1°C° 0,2 mm 11 m/S 727 mmHg 58%
    12:00 -1°C° 0,2 mm 11 m/S 728 mmHg 58%
    13:00 -1°C° 0,2 mm 11 m/S 730 mmHg 58%
    14:00 0°C° 0,2 mm 10 m/S 731 mmHg 59%
    15:00 0°C° 0,2 mm 10 m/S 732 mmHg 60%
    16:00 0°C° 0,2 mm 9 m/S 733 mmHg 60%
    17:00 0°C° 0,1 mm 8 m/S 734 mmHg 63%
    18:00 -1°C° 0,1 mm 7 m/S 735 mmHg 67%
    19:00 -1°C° 0,1 mm 6 m/S 736 mmHg 70%
    20:00 -2°C° 0 mm 6 m/S 736 mmHg 73%
    21:00 -1°C° 0 mm 5 m/S 736 mmHg 77%
    22:00 -2°C° 0 mm 4 m/S 737 mmHg 80%
    23:00 -2°C° 0 mm 4 m/S 736 mmHg 80%

    27 November, Montag

    Zeit Temperatur Niederschläge Wind Luftdruck Luftfeuchtigkeit
    00:00 -1°C° 0 mm 4 m/S 736 mmHg 80%
    01:00 -1°C° 0 mm 4 m/S 736 mmHg 80%
    02:00 -1°C° 0 mm 4 m/S 736 mmHg 80%
    03:00 -1°C° 0 mm 4 m/S 735 mmHg 79%
    04:00 -1°C° 0 mm 4 m/S 735 mmHg 79%
    05:00 0°C° 0,1 mm 5 m/S 734 mmHg 77%
    06:00 +2°C° 0,1 mm 5 m/S 734 mmHg 75%
    07:00 +3°C° 0,1 mm 6 m/S 733 mmHg 73%
    08:00 +3°C° 0,2 mm 6 m/S 732 mmHg 74%
    09:00 +4°C° 0,2 mm 7 m/S 731 mmHg 74%
    10:00 +4°C° 0,2 mm 7 m/S 730 mmHg 75%
    11:00 +5°C° 0,1 mm 8 m/S 729 mmHg 75%
    12:00 +6°C° 0,1 mm 8 m/S 729 mmHg 75%
    13:00 +7°C° 0,1 mm 8 m/S 728 mmHg 74%
    14:00 +7°C° 0,1 mm 8 m/S 728 mmHg 75%
    15:00 +7°C° 0,1 mm 8 m/S 728 mmHg 76%
    16:00 +7°C° 0,1 mm 8 m/S 727 mmHg 76%
    17:00 +8°C° 0 mm 7 m/S 727 mmHg 79%
    18:00 +8°C° 0 mm 6 m/S 727 mmHg 81%
    19:00 +8°C° 0 mm 5 m/S 727 mmHg 84%
    20:00 +7°C° 0,1 mm 5 m/S 727 mmHg 85%
    21:00 +7°C° 0,1 mm 5 m/S 728 mmHg 86%
    22:00 +7°C° 0,1 mm 5 m/S 728 mmHg 87%
    23:00 +7°C° 0,1 mm 5 m/S 728 mmHg 88%

    28 November, Dienstag

    Zeit Temperatur Niederschläge Wind Luftdruck Luftfeuchtigkeit
    00:00 +7°C° 0,1 mm 5 m/S 728 mmHg 88%
    01:00 +7°C° 0,1 mm 4 m/S 728 mmHg 89%
    02:00 +7°C° 0,1 mm 4 m/S 729 mmHg 89%
    03:00 +7°C° 0,1 mm 4 m/S 729 mmHg 90%
    04:00 +7°C° 0,1 mm 4 m/S 729 mmHg 90%
    05:00 +8°C° 0,1 mm 4 m/S 729 mmHg 89%
    06:00 +8°C° 0,1 mm 4 m/S 729 mmHg 88%
    07:00 +9°C° 0,1 mm 5 m/S 729 mmHg 87%
    08:00 +10°C° 0,1 mm 6 m/S 729 mmHg 82%
    09:00 +11°C° 0,1 mm 7 m/S 729 mmHg 77%
    10:00 +12°C° 0,1 mm 8 m/S 729 mmHg 71%
    11:00 +13°C° 0 mm 9 m/S 728 mmHg 66%
    12:00 +13°C° 0 mm 9 m/S 728 mmHg 61%
    13:00 +14°C° 0 mm 10 m/S 728 mmHg 56%
    14:00 +14°C° 0 mm 10 m/S 727 mmHg 55%
    15:00 +14°C° 0 mm 10 m/S 727 mmHg 54%
    16:00 +14°C° 0 mm 10 m/S 726 mmHg 53%
    17:00 +13°C° 0 mm 9 m/S 726 mmHg 56%
    18:00 +12°C° 0 mm 9 m/S 726 mmHg 59%
    19:00 +11°C° 0 mm 8 m/S 725 mmHg 63%
    20:00 +10°C° 0,2 mm 8 m/S 725 mmHg 68%
    21:00 +9°C° 0,2 mm 8 m/S 726 mmHg 74%
    22:00 +7°C° 0,2 mm 8 m/S 726 mmHg 80%
    23:00 +6°C° 0,1 mm 7 m/S 726 mmHg 79%

    29 November, Mittwoch

    Zeit Temperatur Niederschläge Wind Luftdruck Luftfeuchtigkeit
    00:00 +4°C° 0,1 mm 7 m/S 727 mmHg 78%
    01:00 +3°C° 0,1 mm 7 m/S 728 mmHg 77%
    02:00 +3°C° 0,1 mm 6 m/S 730 mmHg 76%
    03:00 +2°C° 0,1 mm 6 m/S 731 mmHg 76%
    04:00 +2°C° 0,1 mm 6 m/S 733 mmHg 75%
    05:00 +3°C° 0 mm 6 m/S 734 mmHg 68%
    06:00 +4°C° 0 mm 6 m/S 735 mmHg 61%
    07:00 +5°C° 0 mm 7 m/S 736 mmHg 53%
    08:00 +6°C° 0 mm 7 m/S 736 mmHg 51%
    09:00 +8°C° 0 mm 7 m/S 736 mmHg 49%
    10:00 +9°C° 0 mm 7 m/S 737 mmHg 47%
    11:00 +9°C° 0 mm 6 m/S 737 mmHg 47%
    12:00 +10°C° 0 mm 6 m/S 737 mmHg 47%
    13:00 +10°C° 0 mm 6 m/S 737 mmHg 47%
    14:00 +10°C° 0 mm 6 m/S 737 mmHg 49%
    15:00 +9°C° 0 mm 5 m/S 737 mmHg 52%
    16:00 +9°C° 0 mm 5 m/S 738 mmHg 54%
    17:00 +8°C° 0 mm 5 m/S 738 mmHg 59%
    18:00 +8°C° 0 mm 5 m/S 738 mmHg 64%
    19:00 +7°C° 0 mm 4 m/S 738 mmHg 68%
    20:00 +6°C° 0 mm 4 m/S 738 mmHg 71%
    21:00 +6°C° 0 mm 4 m/S 738 mmHg 73%
    22:00 +6°C° 0 mm 5 m/S 738 mmHg 76%
    23:00 +5°C° 0 mm 4 m/S 737 mmHg 78%
    Mehr zeigen